| time (UTC) | temp C | wind direction | speed KPH | gust KPH | rain 1hr cm | rain 24hr cm | rain mn cm | humidity % | barometer mb |
| 20260831170030 | 18 | 252 | 54.7 | 75.6 | 0.00 | 0.00 | 0.38 | 83 | 1010.8 |
| 20260831165030 | 18 | 251 | 45.1 | 67.6 | 0.00 | 0.00 | 0.38 | 81 | 1010.5 |
| 20260831164030 | 18 | 246 | 40.2 | 54.7 | 0.00 | 0.00 | 0.38 | 81 | 1010.8 |
| 20260831163030 | 18 | 243 | 41.8 | 56.3 | 0.00 | 0.00 | 0.38 | 79 | 1010.6 |
| 20260831162029 | 18 | 243 | 41.8 | 57.9 | 0.00 | 0.00 | 0.38 | 80 | 1010.4 |
| 20260831161030 | 18 | 257 | 40.2 | 57.9 | 0.00 | 0.00 | 0.38 | 79 | 1010.1 |
| 20260831160030 | 18 | 249 | 40.2 | 53.1 | 0.00 | 0.00 | 0.38 | 80 | 1010.2 |
| 20260831155030 | 18 | 241 | 33.8 | 46.7 | 0.00 | 0.00 | 0.38 | 82 | 1010.2 |
| 20260831154030 | 18 | 250 | 40.2 | 59.5 | 0.00 | 0.00 | 0.38 | 81 | 1010.1 |
| 20260831153030 | 18 | 250 | 41.8 | 51.5 | 0.00 | 0.00 | 0.38 | 80 | 1009.9 |
| 20260831152029 | 18 | 249 | 43.5 | 57.9 | 0.00 | 0.00 | 0.38 | 78 | 1009.8 |
| 20260831151030 | 18 | 257 | 43.5 | 56.3 | 0.00 | 0.00 | 0.38 | 78 | 1009.7 |
| 20260831150030 | 18 | 250 | 38.6 | 53.1 | 0.00 | 0.00 | 0.38 | 80 | 1009.6 |
| 20260831145030 | 17 | 240 | 35.4 | 48.3 | 0.00 | 0.00 | 0.38 | 82 | 1009.7 |
| 20260831144030 | 17 | 246 | 37.0 | 49.9 | 0.00 | 0.00 | 0.38 | 82 | 1009.6 |
| 20260831143030 | 17 | 257 | 38.6 | 51.5 | 0.00 | 0.00 | 0.38 | 82 | 1009.4 |
| 20260831142029 | 17 | 233 | 40.2 | 56.3 | 0.00 | 0.00 | 0.38 | 81 | 1009.3 |
| 20260831141030 | 17 | 239 | 43.5 | 53.1 | 0.00 | 0.00 | 0.38 | 80 | 1009.0 |
| 20260831140030 | 18 | 251 | 45.1 | 61.2 | 0.00 | 0.00 | 0.38 | 80 | 1008.6 |
| 20260831135030 | 17 | 253 | 38.6 | 49.9 | 0.00 | 0.00 | 0.38 | 82 | 1008.6 |
| 20260831134030 | 17 | 258 | 45.1 | 59.5 | 0.00 | 0.00 | 0.38 | 81 | 1008.6 |
| 20260831133030 | 17 | 247 | 41.8 | 57.9 | 0.00 | 0.00 | 0.38 | 80 | 1008.5 |
| 20260831132030 | 18 | 247 | 35.4 | 43.5 | 0.00 | 0.00 | 0.38 | 80 | 1008.6 |
| 20260831131030 | 17 | 240 | 40.2 | 51.5 | 0.00 | 0.00 | 0.38 | 80 | 1008.4 |
| 20260831130030 | 17 | 239 | 41.8 | 51.5 | 0.00 | 0.00 | 0.38 | 79 | 1008.2 |
| 20260831125030 | 17 | 248 | 41.8 | 57.9 | 0.00 | 0.00 | 0.38 | 80 | 1008.0 |
| 20260831124030 | 17 | 250 | 45.1 | 62.8 | 0.00 | 0.00 | 0.38 | 81 | 1008.0 |
| 20260831123029 | 17 | 250 | 35.4 | 53.1 | 0.00 | 0.00 | 0.38 | 80 | 1007.8 |
| 20260831122030 | 17 | 232 | 35.4 | 45.1 | 0.00 | 0.00 | 0.38 | 81 | 1007.9 |
| 20260831121030 | 17 | 238 | 35.4 | 54.7 | 0.00 | 0.00 | 0.38 | 81 | 1007.6 |
| 20260831120030 | 17 | 236 | 37.0 | 51.5 | 0.00 | 0.00 | 0.38 | 84 | 1007.6 |
| 20260831115030 | 17 | 234 | 24.1 | 38.6 | 0.00 | 0.00 | 0.38 | 88 | 1007.7 |
| 20260831114030 | 16 | 233 | 29.0 | 48.3 | 0.00 | 0.00 | 0.38 | 88 | 1007.8 |
| 20260831113033 | 16 | 238 | 38.6 | 59.5 | 0.00 | 0.00 | 0.36 | 87 | 1007.7 |
| 20260831112030 | 16 | 202 | 22.5 | 41.8 | 0.00 | 0.00 | 0.36 | 87 | 1007.7 |
| 20260831111030 | 15 | 210 | 17.7 | 35.4 | 0.00 | 0.00 | 0.36 | 89 | 1007.7 |
| 20260831110030 | 15 | 214 | 17.7 | 35.4 | 0.00 | 0.00 | 0.36 | 88 | 1007.5 |
| 20260831105029 | 15 | 204 | 19.3 | 38.6 | 0.00 | 0.00 | 0.36 | 88 | 1007.6 |
| 20260831104029 | 15 | 230 | 41.8 | 61.2 | 0.00 | 0.00 | 0.36 | 87 | 1007.5 |
| 20260831103030 | 16 | 238 | 49.9 | 69.2 | 0.00 | 0.00 | 0.30 | 85 | 1006.6 |
| 20260831102032 | 18 | 236 | 27.4 | 49.9 | 0.00 | 0.00 | 0.30 | 78 | 1007.0 |
| 20260831101030 | 18 | 212 | 24.1 | 41.8 | 0.00 | 0.00 | 0.30 | 76 | 1006.9 |
| 20260831100030 | 18 | 203 | 25.7 | 53.1 | 0.00 | 0.00 | 0.30 | 77 | 1006.9 |
| 20260831095030 | 18 | 215 | 17.7 | 41.8 | 0.00 | 0.00 | 0.30 | 80 | 1007.0 |
| 20260831094030 | 18 | 206 | 20.9 | 46.7 | 0.00 | 0.00 | 0.30 | 81 | 1007.0 |
| 20260831093030 | 17 | 215 | 24.1 | 45.1 | 0.00 | 0.00 | 0.30 | 82 | 1006.9 |
| 20260831092030 | 17 | 211 | 17.7 | 40.2 | 0.00 | 0.00 | 0.30 | 84 | 1006.9 |
| 20260831091030 | 17 | 194 | 12.9 | 33.8 | 0.00 | 0.00 | 0.30 | 85 | 1006.6 |
| 20260831090030 | 17 | 197 | 14.5 | 30.6 | 0.00 | 0.00 | 0.28 | 85 | 1006.8 |
| 20260831085030 | 17 | 190 | 12.9 | 30.6 | 0.00 | 0.00 | 0.28 | 86 | 1007.0 |
| 20260831084030 | 17 | 197 | 19.3 | 38.6 | 0.00 | 0.00 | 0.28 | 87 | 1006.9 |
| 20260831083030 | 17 | 190 | 14.5 | 38.6 | 0.00 | 0.00 | 0.28 | 89 | 1007.0 |
| 20260831082029 | 16 | 191 | 12.9 | 30.6 | 0.00 | 0.00 | 0.28 | 90 | 1007.0 |
| 20260831081029 | 16 | 202 | 9.7 | 25.7 | 0.00 | 0.00 | 0.28 | 91 | 1007.1 |
| 20260831080030 | 16 | 205 | 11.3 | 27.4 | 0.00 | 0.00 | 0.28 | 91 | 1007.0 |
| 20260831075030 | 16 | 184 | 9.7 | 22.5 | 0.00 | 0.00 | 0.28 | 91 | 1006.9 |
| 20260831074030 | 16 | 167 | 6.4 | 22.5 | 0.00 | 0.00 | 0.28 | 91 | 1006.6 |
| 20260831073030 | 16 | 181 | 4.8 | 17.7 | 0.00 | 0.00 | 0.28 | 91 | 1006.5 |
| 20260831072030 | 16 | 182 | 8.0 | 20.9 | 0.00 | 0.00 | 0.28 | 90 | 1006.9 |
| 20260831071030 | 16 | 199 | 11.3 | 22.5 | 0.00 | 0.00 | 0.28 | 90 | 1007.3 |
| 20260831070030 | 16 | 176 | 9.7 | 30.6 | 0.00 | 0.00 | 0.28 | 89 | 1007.3 |
| 20260831065030 | 16 | 203 | 14.5 | 33.8 | 0.00 | 0.00 | 0.23 | 89 | 1007.4 |
| 20260831064030 | 16 | 205 | 16.1 | 32.2 | 0.00 | 0.00 | 0.15 | 89 | 1007.4 |
| 20260831063030 | 16 | 187 | 14.5 | 30.6 | 0.00 | 0.00 | 0.15 | 90 | 1007.3 |
| 20260831062030 | 16 | 193 | 12.9 | 30.6 | 0.00 | 0.00 | 0.15 | 90 | 1007.3 |
| 20260831061030 | 16 | 190 | 8.0 | 22.5 | 0.00 | 0.00 | 0.15 | 91 | 1007.1 |
| 20260831060030 | 16 | 200 | 6.4 | 17.7 | 0.00 | 0.00 | 0.15 | 91 | 1006.9 |
| 20260831055030 | 16 | 193 | 6.4 | 19.3 | 0.00 | 0.00 | 0.15 | 91 | 1006.9 |
| 20260831054030 | 16 | 174 | 4.8 | 17.7 | 0.00 | 0.00 | 0.15 | 91 | 1006.8 |
| 20260831053030 | 16 | 184 | 4.8 | 24.1 | 0.00 | 0.00 | 0.15 | 91 | 1006.9 |
| 20260831052030 | 16 | 155 | 3.2 | 16.1 | 0.00 | 0.00 | 0.15 | 91 | 1006.8 |
| 20260831051030 | 16 | 176 | 4.8 | 19.3 | 0.00 | 0.00 | 0.15 | 91 | 1007.0 |
| 20260831050030 | 16 | 189 | 4.8 | 19.3 | 0.00 | 0.00 | 0.15 | 91 | 1006.9 |
| 20260831045030 | 16 | 183 | 6.4 | 19.3 | 0.00 | 0.00 | 0.15 | 91 | 1006.9 |
| 20260831044029 | 16 | 179 | 4.8 | 19.3 | 0.00 | 0.00 | 0.15 | 91 | 1006.8 |
| 20260831043030 | 16 | 196 | 6.4 | 14.5 | 0.00 | 0.00 | 0.15 | 91 | 1006.8 |
| 20260831042030 | 16 | 186 | 3.2 | 11.3 | 0.00 | 0.00 | 0.15 | 91 | 1006.7 |
| 20260831040030 | 16 | 202 | 6.4 | 16.1 | 0.00 | 0.00 | 0.15 | 91 | 1007.0 |
| 20260831035030 | 16 | 181 | 4.8 | 19.3 | 0.00 | 0.00 | 0.15 | 91 | 1007.1 |
| 20260831034030 | 16 | 150 | 3.2 | 8.0 | 0.00 | 0.00 | 0.15 | 90 | 1007.2 |
| 20260831033030 | 16 | 145 | 3.2 | 11.3 | 0.00 | 0.00 | 0.15 | 90 | 1007.1 |
| 20260831032030 | 16 | 134 | 3.2 | 9.7 | 0.00 | 0.00 | 0.15 | 90 | 1007.1 |
| 20260831031030 | 16 | 126 | 3.2 | 9.7 | 0.00 | 0.00 | 0.15 | 90 | 1007.2 |
| 20260831030030 | 16 | 133 | 3.2 | 9.7 | 0.00 | 0.00 | 0.15 | 90 | 1007.1 |
| 20260831025029 | 16 | 138 | 3.2 | 9.7 | 0.00 | 0.00 | 0.15 | 90 | 1007.3 |
| 20260831024030 | 16 | 176 | 3.2 | 11.3 | 0.00 | 0.00 | 0.15 | 90 | 1007.4 |
| 20260831023030 | 16 | 120 | 3.2 | 9.7 | 0.00 | 0.00 | 0.15 | 90 | 1007.6 |
| 20260831022030 | 16 | 156 | 3.2 | 9.7 | 0.00 | 0.00 | 0.15 | 90 | 1007.6 |
| 20260831021030 | 16 | 186 | 4.8 | 11.3 | 0.00 | 0.00 | 0.15 | 90 | 1007.7 |
| 20260831020030 | 16 | 190 | 4.8 | 9.7 | 0.00 | 0.00 | 0.15 | 90 | 1007.8 |
| 20260831015030 | 16 | 183 | 4.8 | 11.3 | 0.00 | 0.00 | 0.15 | 90 | 1007.9 |
| 20260831014030 | 16 | 196 | 3.2 | 11.3 | 0.00 | 0.00 | 0.15 | 90 | 1007.7 |
| 20260831013030 | 16 | 193 | 3.2 | 8.0 | 0.00 | 0.00 | 0.15 | 90 | 1007.6 |
| 20260831012029 | 16 | 140 | 3.2 | 8.0 | 0.00 | 0.00 | 0.15 | 90 | 1007.6 |
| 20260831011029 | 16 | 120 | 3.2 | 8.0 | 0.00 | 0.00 | 0.15 | 90 | 1007.5 |
| 20260831010030 | 16 | 156 | 3.2 | 9.7 | 0.00 | 0.00 | 0.15 | 90 | 1007.8 |
| 20260831005030 | 16 | 136 | 1.6 | 8.0 | 0.00 | 0.00 | 0.15 | 90 | 1007.9 |
| 20260831004029 | 16 | 183 | 3.2 | 8.0 | 0.00 | 0.00 | 0.15 | 90 | 1008.1 |
| 20260831003030 | 16 | 139 | 3.2 | 11.3 | 0.00 | 0.00 | 0.15 | 90 | 1008.1 |
| 20260831002030 | 16 | 136 | 3.2 | 9.7 | 0.00 | 0.00 | 0.15 | 90 | 1008.1 |
| 20260831001030 | 16 | 121 | 3.2 | 9.7 | 0.00 | 0.00 | 0.15 | 90 | 1008.2 |
| 20260831000030 | 17 | 103 | 3.2 | 11.3 | 0.00 | 0.00 | 0.15 | 90 | 1008.1 |
| 20260830235030 | 17 | 137 | 3.2 | 9.7 | 0.00 | 0.00 | 0.15 | 89 | 1008.2 |
| 20260830234030 | 17 | 119 | 3.2 | 9.7 | 0.00 | 0.00 | 0.15 | 90 | 1008.3 |
| 20260830233030 | 17 | 106 | 3.2 | 6.4 | 0.00 | 0.00 | 0.15 | 89 | 1008.4 |
| 20260830232030 | 17 | 153 | 0.0 | 3.2 | 0.00 | 0.00 | 0.15 | 89 | 1008.4 |
| 20260830231030 | 17 | 172 | 3.2 | 8.0 | 0.00 | 0.00 | 0.15 | 89 | 1008.5 |
| 20260830230030 | 17 | 151 | 1.6 | 6.4 | 0.00 | 0.00 | 0.15 | 89 | 1008.5 |
| 20260830225030 | 17 | 197 | 6.4 | 11.3 | 0.00 | 0.00 | 0.15 | 89 | 1008.7 |
| 20260830224030 | 17 | 216 | 9.7 | 16.1 | 0.00 | 0.00 | 0.15 | 89 | 1008.8 |
| 20260830223030 | 17 | 229 | 11.3 | 20.9 | 0.00 | 0.00 | 0.15 | 88 | 1008.9 |
| 20260830222030 | 17 | 199 | 4.8 | 12.9 | 0.00 | 0.00 | 0.05 | 87 | 1009.0 |
| 20260830221030 | 17 | 98 | 3.2 | 11.3 | 0.00 | 0.00 | 0.00 | 87 | 1008.9 |
| 20260830220030 | 17 | 102 | 3.2 | 9.7 | 0.00 | 0.00 | 1.27 | 87 | 1008.9 |
| 20260830215030 | 17 | 113 | 1.6 | 9.7 | 0.00 | 0.00 | 1.27 | 87 | 1009.0 |
| 20260830214030 | 17 | 118 | 3.2 | 16.1 | 0.00 | 0.00 | 1.27 | 87 | 1009.1 |
| 20260830213030 | 17 | 151 | 1.6 | 16.1 | 0.00 | 0.00 | 1.27 | 87 | 1009.1 |
| 20260830212029 | 17 | 108 | 3.2 | 14.5 | 0.00 | 0.00 | 1.27 | 87 | 1009.2 |
| 20260830211030 | 17 | 131 | 3.2 | 12.9 | 0.00 | 0.00 | 1.27 | 86 | 1009.2 |
| 20260830210030 | 17 | 139 | 4.8 | 12.9 | 0.00 | 0.00 | 1.27 | 86 | 1009.3 |
| 20260830205030 | 18 | 129 | 3.2 | 12.9 | 0.00 | 0.00 | 1.27 | 85 | 1009.3 |
| 20260830204030 | 18 | 139 | 3.2 | 11.3 | 0.00 | 0.00 | 1.27 | 85 | 1009.5 |
| 20260830203030 | 18 | 136 | 3.2 | 11.3 | 0.00 | 0.00 | 1.27 | 85 | 1009.6 |
| 20260830202030 | 18 | 139 | 0.0 | 9.7 | 0.00 | 0.00 | 1.27 | 84 | 1009.7 |
| 20260830201030 | 18 | 101 | 0.0 | 1.6 | 0.00 | 0.00 | 1.27 | 84 | 1009.8 |
| 20260830200030 | 18 | 180 | 0.0 | 0.0 | 0.00 | 0.00 | 1.27 | 83 | 1009.9 |
| 20260830195030 | 18 | 180 | 0.0 | 0.0 | 0.00 | 0.00 | 1.27 | 83 | 1009.9 |
| 20260830194029 | 18 | 180 | 0.0 | 0.0 | 0.00 | 0.00 | 1.27 | 82 | 1010.1 |
| 20260830193030 | 18 | 180 | 0.0 | 0.0 | 0.00 | 0.00 | 1.27 | 82 | 1010.1 |
| 20260830192030 | 18 | 180 | 0.0 | 0.0 | 0.00 | 0.00 | 1.27 | 81 | 1010.2 |
| 20260830191031 | 18 | 129 | 0.0 | 1.6 | 0.00 | 0.00 | 1.27 | 81 | 1010.2 |
| 20260830190029 | 18 | 112 | 1.6 | 6.4 | 0.00 | 0.00 | 1.27 | 81 | 1010.1 |
| 20260830185029 | 19 | 119 | 1.6 | 4.8 | 0.00 | 0.00 | 1.27 | 81 | 1010.1 |
| 20260830184029 | 19 | 149 | 1.6 | 4.8 | 0.00 | 0.00 | 1.27 | 81 | 1010.2 |
| 20260830183030 | 19 | 163 | 1.6 | 4.8 | 0.00 | 0.00 | 1.27 | 82 | 1010.4 |
| 20260830182030 | 19 | 198 | 1.6 | 6.4 | 0.00 | 0.00 | 1.27 | 82 | 1010.5 |
| 20260830181030 | 19 | 179 | 1.6 | 4.8 | 0.00 | 0.00 | 1.27 | 83 | 1010.2 |
| 20260830180030 | 19 | 188 | 3.2 | 6.4 | 0.00 | 0.00 | 1.27 | 83 | 1010.2 |
| 20260830175030 | 20 | 196 | 4.8 | 8.0 | 0.00 | 0.00 | 1.27 | 83 | 1010.2 |
| 20260830174030 | 20 | 196 | 4.8 | 8.0 | 0.00 | 0.00 | 1.27 | 83 | 1010.4 |
| 20260830173030 | 20 | 205 | 8.0 | 14.5 | 0.00 | 0.00 | 1.27 | 83 | 1010.4 |
| 20260830172030 | 20 | 209 | 8.0 | 14.5 | 0.00 | 0.00 | 1.27 | 83 | 1010.5 |
| 20260830171030 | 20 | 206 | 6.4 | 12.9 | 0.00 | 0.00 | 1.27 | 83 | 1010.5 |